STARLINK-6313, 56519

Orbit data source: Space-Track

STARLINK-6313, 56519 is a payload satellite owned by SpaceX/Seattle (US) in LEO that was launched on Sun, 14 May 2023 UTC via an FALCON 9 launch vehicle from the Air Force Eastern Test Range (AFETR). Payload-class satellites include a variety of spacecraft equipped with specific instruments for various scientific and technological missions. These include communications satellites like Starlink; space stations such as the ISS; scientific satellites like the Hubble; Earth observation satellites from companies like Planet Labs, Umbra, and HawkEye 360; GPS; miniature CubeSats for education and research; and military/defense satellites.

Loading next visibility...
Identifier
56519, 2023-065S
Orbit
LEO
Country
Flag of USUS
Related business
Manufacturer
SpaceX/Seattle
Mission
Operational Commercial Communications
Bus & Motor
STARLINK, Unknown motor
Mass
305 kg wet, ~290 kg dry
Launch date (UTC)
2023-05-14 (3 years ago)
Launch vehicle
FALCON 9
Launch site
Air Force Eastern Test Range (AFETR)
Object type
Payload
Rocket body
Debris
Shape & HBR
Box + 1 Pan, 10.1 m
Radar Cross Section
11.087 m², Large (>1 m²)

Expand to show TLE details & history
Last TLE update: 3 days ago

TLE from 3 days ago
0 STARLINK-6313
1 56519U 23065S   26170.86290037  .00000255  00000-0  18780-4 0  9993
2 56519  43.0025 355.6343 0001574 246.9493 113.1193 15.27577530172220
Epoch: 2026-06-19T20:42Z
TLE epoch observation values (Epoch: 2026-06-19T20:42:34.591Z)
Latitude
-0.00003°
Longitude
136.90436°
Altitude
483.256 km
Speed
7.625 km/s
True Right ascension
23h 42m 32s
True Declination
0° 00' 00"
Sunlit
Object was in daylight at epoch
Visualization orbit readout
Latitude
Unknown
Longitude
Unknown
Altitude
Unknown
Speed
Unknown
Apparent Right ascension
Unknown
Apparent Declination
Unknown
Sunlit
N/A
Visualization observer readout
Local Sidereal Time
21:24:49
Azimuth
Unknown
Elevation
Unknown
Doppler factor
Unknown
Orbital elements
Apogee altitude
486.082 km
Perigee altitude
483.921 km
Semi-major axis
6,863.138 km
Eccentricity
0.00016
Inclination
43.0025°
RAAN
355.6343°
Arg. of periapsis
246.9493°
True anomaly
113.13589°
Mean anomaly
113.1193°
Eccentric anomaly
113.12759°
Mean motion
3.81732 °/min
Orbital period
94.31 mins
BSTAR
0.00001878
Loading maneuver chart data...
Computing Atmospheric mass density...
Loading historical data...
Loading historical data...
Loading historical data...
Loading historical data...
Loading historical data...
Loading historical data...
Loading historical data...

Documentation

Showing up to 5 results
|